[[{"header":{"parameterUnit":"m.s-1","parameterCategory":1,"la1":30.2991,"la2":30.254,"lo1":-89.0895,"lo2":-89.0444,"dy":0.0017,"dx":0.0017,"nx":28,"ny":28,"refTime":"2023-09-24T03:00:00:Z","depth":0,"parameterNumber":2,"parameterNumberName":"U-component_of_WINDS"},"data":[0,0,0,0,0,0,0,0,0,0,0,0,0,0,0,0,0,0,0,0,0,0,0,0,0,0,0,0,0,0,0,0,0,0,0,0,0,0,0,0,0,0,0,0,0,0,0,0,0,0,0,0,0,0,0,0,0,0,-0.3702,-0.37,0,-0.3507,-0.3505,-0.3503,-0.3374,-0.3373,-0.3372,-0.3371,-0.3171,-0.3167,-0.3163,0,0,0,0,0,0,0,0,0,0,0,0,0,-0.3967,-0.3963,-0.3703,-0.37,-0.3698,-0.3508,-0.3505,-0.3502,-0.3374,-0.3373,-0.3372,-0.3371,-0.3173,-0.3168,-0.3162,0,0,0,0,0,0,0,0,0,0,0,0,0,-0.382,-0.3961,-0.3703,-0.361,-0.36,-0.3508,-0.3505,-0.3502,-0.3374,-0.3373,-0.3371,-0.337,-0.3175,-0.3168,-0.3161,-0.3146,0,0,-0.3141,-0.3138,0,0,0,0,0,0,0,0,-0.3829,-0.3811,-0.3626,-0.3617,-0.3605,-0.3463,-0.3525,-0.3382,-0.3374,-0.346,-0.3371,-0.3369,-0.327,-0.3255,-0.3221,-0.3137,-0.3128,-0.314,-0.3136,-0.3133,-0.3131,0,0,0,0,0,0,0,-0.3839,-0.3818,-0.3625,-0.3624,-0.3611,-0.358,-0.3558,-0.3497,-0.3374,-0.3452,-0.3442,-0.3421,-0.3264,-0.3228,-0.3216,-0.3125,-0.314,-0.3134,-0.313,-0.3128,-0.3023,-0.3025,0,0,0,0,0,0,-0.3864,-0.3828,-0.3631,-0.3619,-0.3716,-0.3576,-0.3551,-0.351,-0.3375,-0.3353,-0.3422,-0.3416,-0.324,-0.3224,-0.3208,-0.3183,-0.3133,-0.3127,-0.3123,-0.3022,-0.3024,-0.3025,0,0,0,0,0,0,-0.387,-0.3847,-0.3639,-0.3721,-0.3692,-0.3573,-0.3528,-0.3507,-0.3471,-0.3352,-0.333,-0.3409,-0.3239,-0.3218,-0.3164,-0.3175,-0.3124,-0.3118,-0.3021,-0.3023,-0.3024,-0.3133,0,0,0,0,0,0,-0.3878,-0.385,-0.3842,-0.3722,-0.3688,-0.3597,-0.3529,-0.3504,-0.346,-0.345,-0.3333,-0.3313,-0.3236,-0.3174,-0.3157,-0.3164,-0.3113,-0.3019,-0.3022,-0.3024,-0.3128,-0.3138,-0.3147,0,0,0,0,0,-0.3888,-0.3879,-0.3842,-0.3819,-0.3675,-0.3597,-0.3578,-0.349,-0.3461,-0.3453,-0.3378,-0.3316,-0.3177,-0.317,-0.3149,-0.3155,-0.3018,-0.3021,-0.3024,-0.3123,-0.3136,-0.3147,0,0,0,0,0,0,-0.4001,-0.3861,-0.3818,-0.377,-0.3697,-0.3576,-0.3561,-0.3506,-0.3439,-0.3432,-0.3326,-0.3301,-0.3258,-0.3201,-0.3196,-0.3136,-0.3091,-0.309,-0.3174,-0.3185,-0.3195,-0.3208,-0.3107,0,0,0,0,0,-0.4021,-0.397,-0.385,-0.3819,-0.3785,-0.3681,-0.3643,-0.3583,-0.3502,-0.347,-0.339,-0.3315,-0.3255,-0.3217,-0.3154,-0.312,-0.3095,-0.3115,-0.3125,-0.3133,-0.3133,-0.3114,-0.3123,-0.3035,-0.3035,-0.3035,0,0,-0.406,-0.3978,-0.3951,-0.384,-0.3776,-0.3727,-0.3655,-0.3604,-0.3567,-0.3462,-0.3406,-0.3347,-0.3256,-0.3213,-0.319,-0.3164,-0.3152,-0.3137,-0.3145,-0.3139,-0.3118,-0.3127,-0.3134,-0.3037,-0.3036,-0.3036,0,0,-0.4107,-0.4039,-0.4007,-0.3946,-0.3851,-0.3783,-0.3776,-0.3664,-0.3621,-0.3564,-0.3486,-0.3441,-0.3338,-0.3278,-0.3234,-0.3266,-0.3209,-0.3249,-0.3299,-0.3283,-0.329,-0.3295,-0.3308,-0.3314,-0.325,-0.325,-0.325,0,-0.4167,-0.4089,-0.3998,-0.3953,-0.3908,-0.3814,-0.3783,-0.3728,-0.3618,-0.359,-0.3563,-0.3436,-0.3368,-0.3311,-0.332,-0.3287,-0.3277,-0.326,-0.3296,-0.3301,-0.3305,-0.3316,-0.3321,-0.3256,-0.3255,-0.3255,-0.3254,0,-0.417,-0.4117,-0.4103,-0.4001,-0.3955,-0.3917,-0.3823,-0.3787,-0.3733,-0.3668,-0.3614,-0.3531,-0.3452,-0.3434,-0.3379,-0.3371,-0.3359,-0.3316,-0.3268,-0.332,-0.3329,-0.3332,-0.3264,-0.3262,-0.326,-0.3259,0,0,-0.4276,-0.4129,-0.4126,-0.408,-0.3972,-0.393,-0.3891,-0.3815,-0.3788,-0.3717,-0.3682,-0.3601,-0.3562,-0.3513,-0.3451,-0.3437,-0.3471,-0.3395,-0.3392,-0.3413,-0.346,-0.3492,-0.3499,-0.3433,-0.3434,-0.3434,-0.3468,0,-0.4307,-0.423,-0.415,-0.4102,-0.4054,-0.3968,-0.3934,-0.3865,-0.3806,-0.3758,-0.3692,-0.3637,-0.3589,-0.3559,-0.3541,-0.347,-0.3478,-0.3467,-0.3401,-0.3399,-0.3425,-0.3503,-0.3535,-0.3571,-0.347,-0.3471,-0.3471,0,-0.433,-0.4266,-0.4214,-0.4115,-0.4092,-0.4062,-0.3989,-0.3944,-0.3866,-0.3824,-0.3773,-0.3709,-0.3665,-0.3626,-0.3566,-0.3561,-0.353,-0.3492,-0.3491,-0.348,-0.3437,-0.3494,-0.358,-0.3586,-0.3475,-0.3475,-0.3475,0,-0.4415,-0.4316,-0.4272,-0.4236,-0.4119,-0.4102,-0.4052,-0.3973,-0.3934,-0.3871,-0.3845,-0.3778,-0.3741,-0.3691,-0.3612,-0.359,-0.3562,-0.3515,-0.3527,-0.3529,-0.3522,-0.3524,-0.3604,-0.3505,-0.3505,-0.3504,-0.3504,0,-0.4456,-0.4428,-0.431,-0.4283,-0.425,-0.4161,-0.4132,-0.4075,-0.4007,-0.3969,-0.3891,-0.3857,-0.3755,-0.371,-0.3648,-0.361,-0.3594,-0.356,-0.3543,-0.3566,-0.3571,-0.3543,-0.3538,-0.3506,-0.3505,-0.3505,-0.3505,0,-0.4544,-0.4463,-0.4411,-0.4307,-0.4281,-0.4261,-0.4172,-0.4145,-0.4084,-0.4037,-0.4021,-0.3925,-0.3869,-0.3786,-0.3704,-0.3663,-0.3635,-0.3608,-0.3661,-0.3651,-0.3668,-0.3668,-0.3733,-0.3737,-0.3636,-0.3637,-0.3638,0,-0.4575,-0.4552,-0.4447,-0.4417,-0.4371,-0.4323,-0.4284,-0.4197,-0.416,-0.4074,-0.4057,-0.3996,-0.3941,-0.3857,-0.378,-0.3718,-0.369,-0.3717,-0.3679,-0.3705,-0.3691,-0.3693,-0.3691,-0.3725,-0.3727,-0.3728,-0.3729,0,-0.464,-0.4603,-0.4549,-0.4485,-0.4441,-0.4385,-0.4326,-0.4306,-0.4207,-0.417,-0.4112,-0.4071,-0.399,-0.3931,-0.386,-0.381,-0.3754,-0.3743,-0.3742,-0.3764,-0.3796,-0.378,-0.3685,-0.374,-0.3739,-0.3738,-0.3738,-0.3737,-0.47,-0.4677,-0.4601,-0.4546,-0.4493,-0.4441,-0.4411,-0.4348,-0.4299,-0.4226,-0.4179,-0.4125,-0.4053,-0.3952,-0.3906,-0.3864,-0.384,-0.3839,-0.3839,-0.384,-0.3849,-0.3805,-0.3851,-0.385,-0.385,-0.385,-0.3849,0,-0.4761,-0.4709,-0.466,-0.4581,-0.4539,-0.4493,-0.4426,-0.4394,-0.4348,-0.4285,-0.4235,-0.4172,-0.4116,-0.4037,-0.3975,-0.3957,-0.393,-0.3944,-0.3943,-0.3934,-0.3873,-0.388,-0.3967,-0.3967,-0.3967,-0.3967,-0.3967,-0.3967,-0.4788,-0.4748,-0.4703,-0.4637,-0.4585,-0.4533,-0.4499,-0.4452,-0.4402,-0.4335,-0.4288,-0.4238,-0.417,-0.4104,-0.4051,-0.403,-0.4011,-0.4033,-0.4004,-0.3948,-0.3937,-0.3927,-0.3933,-0.403,-0.403,-0.4067,-0.4068,-0.4068]},{"header":{"parameterUnit":"m.s-1","parameterCategory":1,"la1":30.2991,"la2":30.254,"lo1":-89.0895,"lo2":-89.0444,"dy":0.0017,"dx":0.0017,"nx":28,"ny":28,"refTime":"2023-09-24T03:00:00:Z","depth":0,"parameterNumber":3,"parameterNumberName":"V-component_of_WINDS"},"data":[0,0,0,0,0,0,0,0,0,0,0,0,0,0,0,0,0,0,0,0,0,0,0,0,0,0,0,0,0,0,0,0,0,0,0,0,0,0,0,0,0,0,0,0,0,0,0,0,0,0,0,0,0,0,0,0,0,0,0.0631,0.0631,0,0.0613,0.0612,0.0612,0.0479,0.0475,0.0472,0.0469,0.0464,0.0467,0.047,0,0,0,0,0,0,0,0,0,0,0,0,0,0.0562,0.0564,0.0631,0.0631,0.063,0.0613,0.0612,0.0612,0.0479,0.0475,0.0471,0.0467,0.0463,0.0467,0.047,0,0,0,0,0,0,0,0,0,0,0,0,0,0.0574,0.0565,0.0631,0.0562,0.0555,0.0613,0.0612,0.0612,0.048,0.0475,0.047,0.0466,0.0462,0.0467,0.0471,0.0598,0,0,0.0485,0.0486,0,0,0,0,0,0,0,0,0.0573,0.0576,0.0572,0.0567,0.0559,0.0542,0.0586,0.0608,0.0481,0.0509,0.0469,0.0463,0.0495,0.0497,0.0505,0.0598,0.0597,0.0485,0.0488,0.049,0.0491,0,0,0,0,0,0,0,0.0572,0.0576,0.0624,0.0572,0.0565,0.0535,0.0531,0.059,0.0531,0.0506,0.0497,0.0495,0.0491,0.0501,0.0504,0.0597,0.0485,0.0489,0.0492,0.0493,0.0792,0.0797,0,0,0,0,0,0,0.058,0.0576,0.0625,0.0623,0.0554,0.0541,0.0536,0.0553,0.053,0.0521,0.05,0.0489,0.0496,0.0499,0.0503,0.0649,0.049,0.0494,0.0496,0.0787,0.0793,0.0799,0,0,0,0,0,0,0.0579,0.0585,0.0625,0.0597,0.06,0.0547,0.0567,0.0556,0.0565,0.0524,0.0515,0.052,0.0492,0.0497,0.0574,0.0647,0.0496,0.05,0.0781,0.0789,0.0796,0.0943,0,0,0,0,0,0,0.0577,0.0585,0.0631,0.0599,0.0602,0.0694,0.0572,0.0559,0.0571,0.0557,0.0541,0.0533,0.0488,0.0568,0.0578,0.065,0.0503,0.0774,0.0784,0.0794,0.0931,0.0955,0.0975,0,0,0,0,0,0.0575,0.0676,0.0634,0.064,0.0657,0.0698,0.07,0.0642,0.0578,0.0624,0.0598,0.0534,0.0637,0.0577,0.0588,0.0662,0.0769,0.0782,0.0793,0.0921,0.095,0.0974,0,0,0,0,0,0,0.0723,0.0671,0.0623,0.0716,0.0712,0.0675,0.0732,0.0675,0.0693,0.068,0.0611,0.0609,0.0697,0.0687,0.0621,0.0783,0.0692,0.0707,0.0786,0.0813,0.0834,0.0835,0.0507,0,0,0,0,0,0.0766,0.08,0.0754,0.084,0.084,0.0787,0.0803,0.0758,0.0753,0.0752,0.0731,0.0733,0.0765,0.0788,0.0816,0.0928,0.0924,0.0985,0.1007,0.1025,0.1039,0.1097,0.1124,0.0838,0.0838,0.0838,0,0,0.0856,0.0831,0.0858,0.0869,0.0861,0.0901,0.0787,0.0834,0.0864,0.0761,0.083,0.0816,0.0813,0.0908,0.0949,0.0903,0.1116,0.104,0.1055,0.1059,0.1112,0.1139,0.1163,0.0846,0.0845,0.0843,0,0,0.104,0.1024,0.1093,0.1086,0.1072,0.1036,0.1053,0.1024,0.1009,0.1077,0.0999,0.1036,0.1093,0.1094,0.1102,0.1283,0.1225,0.1294,0.1409,0.1467,0.1489,0.1509,0.1574,0.1598,0.1308,0.1309,0.1309,0,0.1155,0.1208,0.1138,0.1189,0.1197,0.1099,0.1171,0.1169,0.1168,0.1177,0.1124,0.1191,0.1183,0.1276,0.1319,0.1329,0.1348,0.1297,0.1491,0.151,0.1527,0.1588,0.1613,0.1317,0.1316,0.1315,0.1314,0,0.135,0.1388,0.1446,0.1441,0.1456,0.1518,0.146,0.1484,0.1437,0.1408,0.1479,0.1464,0.1486,0.1505,0.1462,0.1592,0.1563,0.1502,0.1409,0.1564,0.162,0.1643,0.1329,0.1326,0.1324,0.1322,0,0,0.1629,0.1581,0.1604,0.16,0.1577,0.1607,0.1665,0.1681,0.1703,0.1706,0.1754,0.1803,0.1744,0.1753,0.171,0.176,0.1904,0.1692,0.1691,0.1732,0.2047,0.2094,0.2122,0.1865,0.1869,0.1872,0.2047,0,0.1806,0.1897,0.1835,0.1938,0.1973,0.188,0.193,0.1924,0.1897,0.1925,0.1897,0.1933,0.1853,0.1857,0.1903,0.1877,0.1967,0.1864,0.1912,0.1915,0.1916,0.2151,0.2201,0.2367,0.2068,0.2072,0.2075,0,0.2024,0.203,0.2135,0.2102,0.2115,0.2161,0.217,0.2198,0.2189,0.2166,0.2174,0.2117,0.2175,0.2082,0.2161,0.2092,0.2108,0.2099,0.2104,0.2107,0.2005,0.2162,0.2418,0.2444,0.2109,0.2106,0.2104,0,0.2217,0.2252,0.2318,0.2318,0.2282,0.2317,0.2304,0.2289,0.2303,0.2313,0.2321,0.2339,0.235,0.2367,0.2317,0.2254,0.2404,0.2307,0.2389,0.239,0.2426,0.2424,0.2689,0.2435,0.2435,0.2434,0.2434,0,0.2421,0.2489,0.2404,0.2446,0.252,0.2449,0.2526,0.2504,0.2491,0.2529,0.2451,0.249,0.2421,0.2453,0.2416,0.2487,0.2493,0.2478,0.2467,0.2485,0.2487,0.2496,0.2483,0.2441,0.2439,0.2438,0.2437,0,0.265,0.2595,0.2661,0.262,0.2612,0.2668,0.2635,0.2673,0.2639,0.2688,0.2696,0.2646,0.2679,0.263,0.2661,0.2635,0.2733,0.2705,0.2735,0.2727,0.2811,0.2804,0.3092,0.3126,0.285,0.2852,0.2855,0,0.2783,0.2833,0.2795,0.2812,0.2803,0.2833,0.2844,0.2777,0.2793,0.2785,0.2825,0.285,0.2867,0.2926,0.2894,0.2916,0.2889,0.2988,0.2892,0.2908,0.289,0.2888,0.2893,0.3008,0.3012,0.3014,0.3016,0,0.3027,0.2996,0.3014,0.3022,0.3037,0.3041,0.304,0.306,0.2989,0.3012,0.3042,0.3055,0.3082,0.3109,0.3123,0.3113,0.3055,0.3046,0.3066,0.3086,0.3101,0.3094,0.2789,0.3041,0.3038,0.3036,0.3035,0.3034,0.3212,0.3251,0.323,0.3252,0.3243,0.3243,0.3276,0.3245,0.3267,0.3281,0.3241,0.3281,0.327,0.3281,0.3278,0.3311,0.3268,0.3298,0.3305,0.3313,0.3326,0.3094,0.3313,0.3313,0.3312,0.3311,0.3311,0,0.3451,0.3432,0.3453,0.3451,0.3469,0.3406,0.3401,0.3422,0.3456,0.3449,0.3465,0.3501,0.3526,0.3495,0.3515,0.3547,0.3521,0.3555,0.3552,0.3551,0.3363,0.3344,0.3576,0.3576,0.3576,0.3576,0.3576,0.3576,0.3578,0.364,0.3607,0.3665,0.3646,0.3681,0.3683,0.3684,0.3677,0.3718,0.3737,0.3715,0.3698,0.3716,0.3738,0.3728,0.374,0.3784,0.3765,0.3591,0.3565,0.354,0.3521,0.3787,0.3787,0.395,0.3951,0.3953]}]]